GW0351 Weather Reports


time (UTC)temp
C
wind
direction
speed
KPH
gust
KPH
rain 1hr
cm
rain 24hr
cm
rain mn
cm
humidity
%
barometer
mb
20260509034828 14 355 0.0 0.0 0.00 0.00 0.00 99 995.7
20260509034327 14 355 0.0 0.0 0.00 0.00 0.00 99 996.1
20260509033823 14 355 0.0 0.0 0.00 0.00 0.00 99 996.4
20260509033320 14 355 0.0 0.0 0.00 0.00 0.00 99 996.4
20260509032817 14 355 0.0 0.0 0.00 0.00 0.00 99 996.4
20260509032314 14 355 0.0 0.0 0.00 0.00 0.00 99 996.1
20260509031812 14 355 0.0 0.0 0.00 0.00 0.00 99 996.1
20260509031309 14 355 0.0 0.0 0.00 0.00 0.00 99 996.4
20260509030807 14 355 0.0 0.0 0.00 0.00 0.00 99 996.1
20260509030304 14 355 0.0 0.0 0.00 0.00 0.00 99 996.1
20260509025801 14 355 0.0 0.0 0.00 0.00 0.00 99 996.1
20260509025256 14 355 0.0 0.0 0.00 0.00 0.00 99 996.4
20260509024752 14 355 0.0 0.0 0.00 0.00 0.00 99 996.1
20260509024248 14 355 0.0 0.0 0.00 0.00 0.00 99 996.1
20260509023746 14 355 0.0 0.0 0.00 0.00 0.00 99 996.1
20260509023243 15 355 0.0 0.0 0.00 0.00 0.00 99 996.1
20260509022739 15 355 0.0 0.0 0.00 0.00 0.00 99 996.1
20260509022237 15 355 0.0 0.0 0.00 0.00 0.00 99 996.4
20260509021733 15 355 0.0 0.0 0.00 0.00 0.00 99 996.1
20260509021231 15 355 0.0 0.0 0.00 0.00 0.00 99 996.1
20260509020728 15 355 0.0 0.0 0.00 0.00 0.00 99 996.1
20260509020225 15 355 0.0 0.0 0.00 0.00 0.00 98 996.1
20260509015723 15 355 0.0 0.0 0.00 0.00 0.00 98 996.4
20260509015222 15 355 0.0 0.0 0.00 0.00 0.00 98 996.4
20260509014718 15 355 0.0 0.0 0.00 0.00 0.00 98 996.4
20260509014215 15 355 0.0 0.0 0.00 0.00 0.00 98 996.8
20260509013711 15 355 0.0 0.0 0.00 0.00 0.00 98 996.4
20260509013207 15 355 0.0 0.0 0.00 0.00 0.00 98 996.4
20260509012704 15 355 0.0 0.0 0.00 0.00 0.00 98 996.8
20260509012200 15 355 0.0 0.0 0.00 0.00 0.00 97 996.4
20260509011658 15 355 0.0 0.0 0.00 0.00 0.00 97 996.4
20260509011155 15 355 0.0 0.0 0.00 0.00 0.00 97 996.4
20260509010653 15 355 0.0 0.0 0.00 0.00 0.00 97 996.1
20260509010149 15 355 0.0 0.0 0.00 0.00 0.00 97 996.4
20260509005647 15 355 0.0 0.0 0.00 0.00 0.00 96 996.4
20260509005143 15 355 0.0 0.0 0.00 0.00 0.00 96 996.4
20260509004639 15 355 0.0 0.0 0.00 0.00 0.00 96 996.4
20260509004136 15 355 0.0 0.0 0.00 0.00 0.00 96 996.8
20260509003635 15 355 0.0 0.0 0.00 0.00 0.00 95 996.8
20260509003132 16 355 0.0 0.0 0.00 0.00 0.00 95 996.4
20260509002629 16 355 0.0 0.0 0.00 0.00 0.00 94 996.8
20260509002126 16 355 0.0 0.0 0.00 0.00 0.00 95 996.4
20260509001624 16 355 0.0 0.0 0.00 0.00 0.00 94 996.8
20260509001119 16 355 0.0 0.0 0.00 0.00 0.00 94 996.4
20260509000618 16 355 0.0 0.0 0.00 0.00 0.00 93 996.8
20260509000114 16 355 0.0 0.0 0.00 0.00 0.00 94 996.8
20260508235612 16 355 0.0 0.0 0.00 0.00 0.00 93 997.2
20260508235108 16 355 0.0 0.0 0.00 0.00 0.00 93 997.2
20260508234606 16 355 0.0 0.0 0.00 0.00 0.00 92 996.8
20260508234102 17 355 0.0 0.0 0.00 0.00 0.00 91 997.2
20260508233601 17 355 0.0 0.0 0.00 0.00 0.00 90 996.8
20260508233058 17 355 0.0 0.0 0.00 0.00 0.00 89 996.8
20260508232555 17 355 0.0 0.0 0.00 0.00 0.00 88 996.8
20260508232052 17 355 0.0 0.0 0.00 0.00 0.00 87 996.8
20260508231550 17 355 0.0 0.0 0.00 0.00 0.00 87 996.8
20260508231046 17 355 0.0 0.0 0.00 0.00 0.00 85 996.8
20260508230543 17 355 0.0 0.0 0.00 0.00 0.00 88 996.8
20260508230040 17 355 0.0 0.0 0.00 0.00 0.00 88 996.4
20260508225537 18 355 0.0 0.0 0.00 0.00 0.00 86 996.1
20260508225033 18 355 0.0 0.0 0.00 0.00 0.00 86 996.1
20260508224532 18 355 0.0 0.0 0.00 0.00 0.00 85 996.1
20260508224029 18 355 0.0 0.0 0.00 0.00 0.00 86 996.1
20260508223527 18 355 0.0 0.0 0.00 0.00 0.00 86 996.1
20260508223023 18 355 0.0 0.0 0.00 0.00 0.00 84 996.1
20260508222521 18 355 0.0 0.0 0.00 0.00 0.00 85 996.4
20260508222017 18 355 0.0 0.0 0.00 0.00 0.00 87 996.1
20260508221514 18 355 0.0 0.0 0.00 0.00 0.00 86 996.4
20260508221010 18 355 0.0 0.0 0.00 0.00 0.00 84 996.4
20260508220507 18 355 0.0 0.0 0.00 0.00 0.00 85 996.4
20260508220003 18 355 0.0 0.0 0.00 0.00 0.00 82 996.4
20260508215500 18 355 0.0 0.0 0.00 0.00 0.00 81 996.4
20260508214956 18 355 0.0 0.0 0.00 0.00 0.00 86 996.4
20260508214454 18 355 0.0 0.0 0.00 0.00 0.00 85 996.4
20260508213950 18 355 0.0 0.0 0.00 0.00 0.00 84 996.4
20260508213448 18 355 0.0 0.0 0.00 0.00 0.00 82 996.4
20260508212942 18 355 0.0 0.0 0.00 0.00 0.00 83 996.4
20260508212440 18 355 0.0 0.0 0.00 0.00 0.00 86 996.4
20260508211935 18 355 0.0 0.0 0.00 0.00 0.00 84 996.1
20260508211431 18 355 0.0 0.0 0.00 0.00 0.00 84 996.4
20260508210929 18 354 0.0 0.0 0.00 0.00 0.00 81 996.1
20260508210425 18 354 0.0 0.0 0.00 0.00 0.00 81 996.8
20260508205921 19 354 0.0 0.0 0.00 0.00 0.00 77 996.4
20260508205419 19 354 0.0 0.0 0.00 0.00 0.00 76 996.8
20260508204915 19 354 0.0 0.0 0.00 0.00 0.00 78 997.2
20260508204413 19 354 0.0 0.0 0.00 0.00 0.00 75 996.8
20260508203908 19 354 0.0 0.0 0.00 0.00 0.00 78 996.4
20260508203404 19 354 0.0 0.0 0.00 0.00 0.00 75 996.8
20260508202900 19 354 0.0 0.0 0.00 0.00 0.00 76 996.8
20260508202357 19 354 0.0 0.0 0.00 0.00 0.00 78 996.4
20260508201855 19 354 0.0 0.0 0.00 0.00 0.00 76 996.8
20260508201351 20 354 0.0 0.0 0.00 0.00 0.00 71 996.8
20260508200848 20 354 0.0 0.0 0.00 0.00 0.00 74 996.4
20260508200345 21 354 0.0 0.0 0.00 0.00 0.00 65 996.8
20260508195840 20 354 0.0 0.0 0.00 0.00 0.00 67 996.4
20260508195337 20 354 0.0 0.0 0.00 0.00 0.00 72 996.4
20260508194833 20 354 0.0 0.0 0.00 0.00 0.00 69 996.4
20260508194331 20 354 0.0 0.0 0.00 0.00 0.00 67 996.8
20260508193827 20 354 0.0 0.0 0.00 0.00 0.00 67 996.8
20260508193324 20 354 0.0 0.0 0.00 0.00 0.00 67 997.2
20260508192820 21 354 0.0 0.0 0.00 0.00 0.00 61 997.2
20260508192318 21 354 0.0 0.0 0.00 0.00 0.00 64 997.2
20260508191815 21 354 0.0 0.0 0.00 0.00 0.00 65 997.2
20260508191312 21 354 0.0 0.0 0.00 0.00 0.00 63 997.5
20260508190809 20 354 0.0 0.0 0.00 0.00 0.00 58 997.2
20260508190306 20 354 0.0 0.0 0.00 0.00 0.00 63 997.2
20260508185802 21 354 0.0 0.0 0.00 0.00 0.00 61 997.5
20260508185259 20 354 0.0 0.0 0.00 0.00 0.00 65 997.5
20260508184756 21 354 0.0 0.0 0.00 0.00 0.00 61 997.5
20260508184254 21 354 0.0 0.0 0.00 0.00 0.00 64 997.2
20260508183750 21 354 0.0 0.0 0.00 0.00 0.00 68 997.5
20260508183247 21 354 0.0 0.0 0.00 0.00 0.00 62 997.5
20260508182743 21 354 0.0 0.0 0.00 0.00 0.00 62 997.9
20260508182239 22 277 0.0 0.0 0.00 0.00 0.00 60 997.9
20260508181735 21 277 0.0 0.0 0.00 0.00 0.00 58 997.9
20260508181232 21 277 0.0 0.0 0.00 0.00 0.00 57 997.9
20260508180729 21 277 0.0 0.0 0.00 0.00 0.00 51 997.9
20260508180226 21 277 0.0 0.0 0.00 0.00 0.00 54 998.2
20260508175722 21 276 0.0 0.0 0.00 0.00 0.00 55 998.2
20260508175219 21 276 0.0 0.0 0.00 0.00 0.00 52 998.2
20260508174717 21 277 0.0 0.0 0.00 0.00 0.00 60 998.2
20260508174214 21 60 0.0 0.0 0.00 0.00 0.00 55 998.6
20260508173710 21 60 0.0 0.0 0.00 0.00 0.00 63 998.6
20260508173206 20 60 0.0 0.0 0.00 0.00 0.00 58 998.6
20260508172704 21 60 0.0 0.0 0.00 0.00 0.00 61 998.2
20260508172200 20 60 0.0 0.0 0.00 0.00 0.00 60 998.6
20260508171657 21 104 0.0 0.0 0.00 0.00 0.00 52 998.6
20260508171153 20 104 0.0 0.0 0.00 0.00 0.00 57 998.6
20260508170650 20 276 3.2 3.2 0.00 0.00 0.00 51 998.9
20260508170148 21 265 3.2 3.2 0.00 0.00 0.00 51 998.9
20260508165645 20 312 1.6 1.6 0.00 0.00 0.00 52 998.9
20260508165142 20 313 0.0 0.0 0.00 0.00 0.00 62 998.9
20260508164638 20 314 0.0 0.0 0.00 0.00 0.00 60 998.9
20260508164135 20 309 0.0 0.0 0.00 0.00 0.00 65 998.9
20260508163633 20 309 0.0 0.0 0.00 0.00 0.00 58 999.2
20260508163130 19 312 0.0 0.0 0.00 0.00 0.00 66 998.9
20260508162626 20 312 0.0 0.0 0.00 0.00 0.00 63 999.2
20260508162124 19 312 0.0 0.0 0.00 0.00 0.00 60 999.6
20260508161620 20 312 0.0 0.0 0.00 0.00 0.00 62 999.6
20260508161118 19 312 0.0 0.0 0.00 0.00 0.00 66 999.6
20260508160616 20 311 0.0 0.0 0.00 0.00 0.00 53 999.9
20260508160113 20 288 0.0 0.0 0.00 0.00 0.00 51 999.6
20260508155610 20 186 0.0 0.0 0.00 0.00 0.00 60 999.9
20260508155107 20 186 0.0 0.0 0.00 0.00 0.00 63 999.6
20260508154603 20 187 0.0 0.0 0.00 0.00 0.00 59 999.9
20260508154100 20 187 0.0 0.0 0.00 0.00 0.00 66 999.9
20260508153557 20 187 0.0 0.0 0.00 0.00 0.00 58 999.6
20260508153054 20 187 0.0 0.0 0.00 0.00 0.00 60 999.9
20260508152551 20 269 0.0 0.0 0.00 0.00 0.00 64 999.9
20260508152046 20 269 0.0 0.0 0.00 0.00 0.00 62 999.9
20260508151543 20 269 0.0 0.0 0.00 0.00 0.00 55 999.9
20260508151040 19 279 0.0 0.0 0.00 0.00 0.00 62 1000.2
20260508150537 19 265 0.0 0.0 0.00 0.00 0.00 57 1000.2
20260508150033 20 265 0.0 0.0 0.00 0.00 0.00 63 999.9
20260508145530 19 265 0.0 0.0 0.00 0.00 0.00 63 999.9
20260508145026 18 268 0.0 0.0 0.00 0.00 0.00 61 1000.6
20260508144523 18 268 0.0 0.0 0.00 0.00 0.00 70 1000.2
20260508144021 18 268 0.0 0.0 0.00 0.00 0.00 68 999.9
20260508143513 18 268 0.0 0.0 0.00 0.00 0.00 75 1000.2
20260508143009 18 268 0.0 0.0 0.00 0.00 0.00 63 1000.2
20260508142506 18 252 0.0 0.0 0.00 0.00 0.00 67 1000.2
20260508142003 17 252 0.0 0.0 0.00 0.00 0.00 77 1000.6
20260508141459 17 258 0.0 0.0 0.00 0.00 0.00 71 1000.6
20260508140957 17 258 0.0 0.0 0.00 0.00 0.00 80 1000.2
20260508140454 16 258 0.0 0.0 0.00 0.00 0.00 85 1000.6
20260508135949 16 258 0.0 0.0 0.00 0.00 0.00 74 1000.2
20260508135446 16 258 0.0 0.0 0.00 0.00 0.00 80 1000.2
20260508134943 16 258 0.0 0.0 0.00 0.00 0.00 86 1000.2
20260508134439 16 258 0.0 0.0 0.00 0.00 0.00 87 1000.2
20260508133936 16 258 0.0 0.0 0.00 0.00 0.00 87 1000.2
20260508133434 15 258 0.0 0.0 0.00 0.00 0.00 81 1000.2
20260508132930 15 258 0.0 0.0 0.00 0.00 0.00 83 1000.6
20260508132428 15 258 0.0 0.0 0.00 0.00 0.00 85 1000.2
20260508131925 15 267 0.0 0.0 0.00 0.00 0.00 87 1000.6
20260508131420 14 288 0.0 0.0 0.00 0.00 0.00 89 1000.2
20260508130917 14 288 0.0 0.0 0.00 0.00 0.00 91 1000.2
20260508130414 13 329 0.0 0.0 0.00 0.00 0.00 90 999.9
20260508125910 13 276 0.0 0.0 0.00 0.00 0.00 92 999.9
20260508125406 13 276 0.0 0.0 0.00 0.00 0.00 93 999.9
20260508124904 13 276 0.0 0.0 0.00 0.00 0.00 94 999.9
20260508124401 12 276 0.0 0.0 0.00 0.00 0.00 96 1000.2
20260508123859 12 277 0.0 0.0 0.00 0.00 0.00 98 1000.2
20260508123357 12 277 0.0 0.0 0.00 0.00 0.00 99 1000.2
20260508122853 12 277 0.0 0.0 0.00 0.00 0.00 99 999.9
20260508122350 12 277 0.0 0.0 0.00 0.00 0.00 99 1000.2
20260508121848 12 277 0.0 0.0 0.00 0.00 0.00 99 999.9
20260508121346 11 277 0.0 0.0 0.00 0.00 0.00 99 999.9
20260508120843 11 277 0.0 0.0 0.00 0.00 0.00 99 999.9
20260508120341 11 277 0.0 0.0 0.00 0.00 0.00 99 999.6
20260508115838 11 277 0.0 0.0 0.00 0.00 0.00 99 999.6
20260508115336 10 277 0.0 0.0 0.00 0.00 0.00 99 999.9
20260508114832 10 277 0.0 0.0 0.00 0.00 0.00 99 999.9
20260508114329 10 277 0.0 0.0 0.00 0.00 0.00 99 999.6
20260508113826 10 277 0.0 0.0 0.00 0.00 0.00 99 999.6
20260508113324 10 277 0.0 0.0 0.00 0.00 0.00 99 999.6
20260508112820 10 277 0.0 0.0 0.00 0.00 0.00 99 999.6
20260508112318 10 277 0.0 0.0 0.00 0.00 0.00 99 999.2
20260508111814 10 277 0.0 0.0 0.00 0.00 0.00 99 998.9
20260508111311 10 277 0.0 0.0 0.00 0.00 0.00 99 999.6
20260508110808 10 277 0.0 0.0 0.00 0.00 0.00 99 998.9
20260508110306 10 277 0.0 0.0 0.00 0.00 0.00 99 998.9
20260508105805 10 277 0.0 0.0 0.00 0.00 0.00 99 998.6
20260508105305 10 277 0.0 0.0 0.00 0.00 0.00 99 998.6
20260508104759 10 277 0.0 0.0 0.00 0.00 0.00 99 998.2
20260508104256 10 277 0.0 0.0 0.00 0.00 0.00 99 998.2
20260508103753 10 277 0.0 0.0 0.00 0.00 0.00 99 998.6
20260508103250 10 277 0.0 0.0 0.00 0.00 0.00 99 998.2
20260508102748 10 277 0.0 0.0 0.00 0.00 0.00 99 997.9
20260508102246 10 277 0.0 0.0 0.00 0.00 0.00 99 997.9
20260508101743 10 277 0.0 0.0 0.00 0.00 0.00 99 997.5
20260508101240 10 277 0.0 0.0 0.00 0.00 0.00 99 997.9
20260508100738 10 277 0.0 0.0 0.00 0.00 0.00 99 997.5
20260508100235 10 277 0.0 0.0 0.00 0.00 0.00 99 997.5
20260508095731 10 277 0.0 0.0 0.00 0.00 0.00 99 997.5
20260508095229 10 277 0.0 0.0 0.00 0.00 0.00 99 997.2
20260508094725 10 277 0.0 0.0 0.00 0.00 0.00 99 997.9
20260508094222 10 277 0.0 0.0 0.00 0.00 0.00 99 997.5
20260508093720 10 277 0.0 0.0 0.00 0.00 0.00 99 997.5
20260508093218 10 277 0.0 0.0 0.00 0.00 0.00 99 997.5
20260508092714 10 277 0.0 0.0 0.00 0.00 0.00 99 997.5
20260508092212 10 277 0.0 0.0 0.00 0.00 0.00 99 997.5
20260508091710 10 277 0.0 0.0 0.00 0.00 0.00 99 997.2
20260508091207 11 277 0.0 0.0 0.00 0.00 0.00 99 997.2
20260508090704 11 277 0.0 0.0 0.00 0.00 0.00 99 997.2
20260508090202 11 277 0.0 0.0 0.00 0.00 0.00 99 997.5
20260508085657 11 277 0.0 0.0 0.00 0.00 0.00 99 997.5
20260508085155 11 277 0.0 0.0 0.00 0.00 0.00 99 997.5
20260508084651 11 277 0.0 0.0 0.00 0.00 0.00 99 997.5
20260508084149 11 277 0.0 0.0 0.00 0.00 0.00 99 997.2
20260508083646 11 277 0.0 0.0 0.00 0.00 0.00 99 997.5
20260508083144 11 277 0.0 0.0 0.00 0.00 0.00 99 997.2
20260508082638 11 277 0.0 0.0 0.00 0.00 0.00 99 997.5
20260508082136 11 277 0.0 0.0 0.00 0.00 0.00 99 997.5
20260508081633 11 277 0.0 0.0 0.00 0.00 0.00 99 997.5
20260508081129 11 277 0.0 0.0 0.00 0.00 0.00 99 997.5
20260508080627 11 277 0.0 0.0 0.00 0.00 0.00 99 997.2
20260508080125 11 277 0.0 0.0 0.00 0.00 0.00 99 997.5
20260508075621 11 277 0.0 0.0 0.00 0.00 0.00 99 997.2
20260508075118 11 277 0.0 0.0 0.00 0.00 0.00 99 997.2
20260508074616 11 277 0.0 0.0 0.00 0.00 0.00 99 996.8
20260508074113 11 277 0.0 0.0 0.00 0.00 0.00 99 996.8
20260508073610 12 277 0.0 0.0 0.00 0.00 0.00 99 997.2
20260508073108 12 277 0.0 0.0 0.00 0.00 0.00 99 997.2
20260508072603 12 277 0.0 0.0 0.00 0.00 0.00 99 997.2
20260508072100 12 277 0.0 0.0 0.00 0.00 0.00 99 997.2
20260508071558 12 277 0.0 0.0 0.00 0.00 0.00 99 997.2
20260508071056 12 277 0.0 0.0 0.00 0.00 0.00 99 997.2
20260508070553 12 277 0.0 0.0 0.00 0.00 0.00 99 997.5
20260508070052 12 277 0.0 0.0 0.00 0.00 0.00 99 997.5
20260508065549 12 277 0.0 0.0 0.00 0.00 0.00 99 997.2
20260508065047 12 277 0.0 0.0 0.00 0.00 0.00 99 997.5
20260508064544 12 277 0.0 0.0 0.00 0.00 0.00 99 997.5
20260508064042 12 277 0.0 0.0 0.00 0.00 0.00 99 997.5
20260508063539 12 277 0.0 0.0 0.00 0.00 0.00 99 997.5
20260508063037 12 277 0.0 0.0 0.00 0.00 0.00 99 997.9
20260508062534 12 277 0.0 0.0 0.00 0.00 0.00 99 997.9
20260508062031 12 277 0.0 0.0 0.00 0.00 0.00 99 997.9
20260508061529 12 277 0.0 0.0 0.00 0.00 0.00 99 998.2
20260508061025 12 277 0.0 0.0 0.00 0.00 0.00 99 997.9
20260508060522 12 277 0.0 0.0 0.00 0.00 0.00 99 997.9
20260508060020 12 277 0.0 0.0 0.00 0.00 0.00 99 997.9
20260508055515 12 277 0.0 0.0 0.00 0.00 0.00 99 997.9
20260508055012 12 277 0.0 0.0 0.00 0.00 0.00 99 997.9
20260508054509 12 277 0.0 0.0 0.00 0.00 0.00 99 997.9
20260508054006 12 277 0.0 0.0 0.00 0.00 0.00 99 997.9
20260508053502 13 277 0.0 0.0 0.00 0.00 0.00 99 997.9
20260508053001 13 277 0.0 0.0 0.00 0.00 0.00 99 997.9
20260508052458 13 277 0.0 0.0 0.00 0.00 0.00 99 997.9
20260508051954 13 277 0.0 0.0 0.00 0.00 0.00 99 997.9
20260508051450 13 277 0.0 0.0 0.00 0.00 0.00 99 997.9
20260508050946 13 277 0.0 0.0 0.00 0.00 0.00 99 997.9
20260508050442 13 277 0.0 0.0 0.00 0.00 0.00 99 997.9
20260508045939 13 277 0.0 0.0 0.00 0.00 0.00 99 997.9
20260508045437 13 277 0.0 0.0 0.00 0.00 0.00 99 997.5
20260508044934 13 277 0.0 0.0 0.00 0.00 0.00 99 997.9
20260508044431 13 277 0.0 0.0 0.00 0.00 0.00 99 997.9
20260508043926 13 277 0.0 0.0 0.00 0.00 0.00 99 997.9
20260508043424 13 277 0.0 0.0 0.00 0.00 0.00 99 997.9
20260508042920 13 277 0.0 0.0 0.00 0.00 0.00 99 997.9
20260508042418 13 277 0.0 0.0 0.00 0.00 0.00 99 997.5
20260508041915 13 277 0.0 0.0 0.00 0.00 0.00 99 997.5
20260508041411 13 277 0.0 0.0 0.00 0.00 0.00 99 997.5
20260508040907 13 277 0.0 0.0 0.00 0.00 0.00 99 997.5
20260508040405 13 277 0.0 0.0 0.00 0.00 0.00 99 997.2
20260508035903 13 277 0.0 0.0 0.00 3.94 3.94 99 997.9
20260508035400 13 277 0.0 0.0 0.00 3.94 3.94 99 997.9